Home > Weather > Würselen > Past weeks

Flag for Germany Past Weather in Würselen, North Rhine-Westphalia, Germany — Yesterday and Last 2 Weeks

Now
64 °F

Clear.


Feels Like: 64 °F
Forecast: 58 / 67 °F
Wind: 3 mph from Southeast

Location: Maastricht Airport Zuid Limburg

Current Time: Jun 29, 2016 at 9:59:07 PM

Latest Report: Jun 29, 2016 at 9:25 PM


Visibility: N/A

Pressure: 29.86 "Hg

Humidity: 64%

Dew Point: 52 °F

Location of WürselenLocation

Past Weather in Würselen — Graph

°F

Würselen Temperature Yesterday

Maximum temperature yesterday: 72 °F (at 5:55 PM)
Minimum temperature yesterday: 55 °F (at 5:55 AM)
Average temperature yesterday: 63 °F

High & Low Weather Summary for the Past Weeks

 TemperatureHumidityPressure
High90 °F (Jun 23, 6:25 PM)100% (Jun 15, 8:55 PM)30.27 "Hg (Jun 15, 8:55 PM)
Low48 °F (Jun 16, 3:25 AM)49% (Jun 23, 6:25 PM)29.47 "Hg (Jun 15, 4:25 AM)
Average62 °F84%29.96 "Hg
* Reported Jun 14 8:25 PM — Jun 29 8:25 PM, Würselen, Weather by CustomWeather, © 2016

Note: Actual official high and low records may vary slightly from our data, if they occured in-between our weather recording intervals... More about our weather records

Advertising

Würselen Weather History for the Previous 24 Hours

Scroll right to see more
 ConditionsComfort  
Time TempWeatherWind HumidityBarometerVisibility
8:25 PM
Wed, Jun 29
66 °FClear.5 mph64%29.89 "HgN/A
7:55 PM66 °FClear.7 mph60%29.89 "HgN/A
7:25 PM66 °FClear.7 mph56%29.89 "HgN/A
6:55 PM66 °FClear.9 mph56%29.89 "HgN/A
6:25 PM66 °FMild.13 mph52%29.89 "HgN/A
5:55 PM68 °FPassing clouds.15 mph53%29.89 "HgN/A
5:25 PM68 °FPartly sunny.12 mph53%29.89 "HgN/A
4:55 PM68 °FClear.14 mph56%29.92 "HgN/A
4:25 PM68 °FPassing clouds.14 mph53%29.92 "HgN/A
3:55 PM68 °FClear.14 mph53%29.92 "HgN/A
3:25 PM66 °FScattered clouds.16 mph56%29.92 "HgN/A
2:55 PM66 °FScattered clouds.16 mph56%29.92 "HgN/A
2:25 PM66 °FPassing clouds.18 mph56%29.92 "HgN/A
1:55 PM66 °FBroken clouds.16 mph60%29.92 "HgN/A
1:25 PM64 °FBroken clouds.14 mph64%29.92 "HgN/A
12:55 PM64 °FBroken clouds.14 mph64%29.95 "HgN/A
12:25 PM63 °FBroken clouds.16 mph68%29.92 "HgN/A
11:55 AM64 °FBroken clouds.18 mph68%29.92 "HgN/A
11:25 AM61 °FMostly cloudy.18 mph72%29.92 "HgN/A
10:55 AM61 °FPartly sunny.20 mph72%29.92 "HgN/A
10:25 AM61 °FCloudy.18 mph72%29.92 "HgN/A
9:55 AM59 °FMostly cloudy.16 mph77%29.92 "HgN/A
9:25 AM57 °FMostly cloudy.18 mph77%29.92 "HgN/A
8:55 AM57 °FLow clouds.17 mph77%29.92 "HgN/A
8:25 AM57 °FMostly cloudy.18 mph77%29.89 "HgN/A
7:55 AM57 °FOvercast.20 mph77%29.89 "HgN/A
7:25 AM57 °FMostly cloudy.20 mph77%29.89 "HgN/A
6:55 AM57 °FScattered clouds.18 mph82%29.89 "HgN/A
6:25 AM57 °FPassing clouds.10 mph88%29.86 "HgN/A
5:55 AM57 °FPartly cloudy.12 mph88%29.86 "HgN/A
5:25 AM57 °FPartly cloudy.12 mph88%29.86 "HgN/A
4:55 AM57 °FPartly cloudy.10 mph88%29.86 "HgN/A
4:25 AM59 °FPartly cloudy.14 mph88%29.86 "HgN/A
3:55 AM59 °FPartly cloudy.10 mph94%29.86 "HgN/A
3:25 AM61 °FOvercast.8 mph94%29.86 "HgN/A
2:55 AM59 °FPartly cloudy.6 mph94%29.83 "HgN/A
2:25 AM59 °FMostly cloudy.8 mph100%29.86 "HgN/A
1:55 AM61 °FPassing clouds.10 mph94%29.86 "HgN/A
1:25 AM61 °FOvercast.13 mph94%29.83 "HgN/A
12:55 AM61 °FPassing clouds.10 mph94%29.83 "HgN/A
12:25 AM61 °FSprinkles. Partly cloudy.10 mph94%29.86 "HgN/A
11:55 PM
Tue, Jun 28
63 °FPartly cloudy.8 mph83%29.86 "HgN/A
11:25 PM64 °FPassing clouds.6 mph73%29.86 "HgN/A
10:55 PM64 °FOvercast.6 mph73%29.86 "HgN/A
10:25 PM64 °FBroken clouds.5 mph73%29.89 "HgN/A
9:55 PM64 °FClear.5 mph73%29.89 "HgN/A
9:25 PM66 °FClear.3 mph68%29.89 "HgN/A
Weather by CustomWeather, © 2016

See weather overviewHow to use our weather pages